[TLELIST] Archives

 

[list_settings.list_name] Current TLEs

December 29th 2013 PDT

HST 1 20580U 90037B 13361.70928184 .00002198 00000-0 14149-3 0 4040 2 20580 028.4712 083.5513 0002750 254.3981 239.4568 15.04420296 98863 ISS (ZARYA) 1 25544U 98067A 13363.37091435 -.00002651 00000-0 -38413-4 0 3474 2 25544 051.6485 221.2616 0005116 332.4424 005.3606 15.50013191864976 CXO 1 25867U 99040B 13363.63269576 -.00000419 00000-0 00000+0 0 9769 2 25867 076.4136 328.6060 8349551 275.9624 000.1764 00.37801133 11277 ____________________________________________________________________ These 2-Line ...Continue Reading

[list_settings.list_name] Current TLEs

December 28th 2013 PDT

HST 1 20580U 90037B 13361.70928184 .00002198 00000-0 14149-3 0 4040 2 20580 028.4712 083.5513 0002750 254.3981 239.4568 15.04420296 98863 ISS (ZARYA) 1 25544U 98067A 13362.23252465 -.00006848 00000-0 -11188-3 0 3392 2 25544 051.6485 226.8983 0005063 319.9305 141.4270 15.50036687864809 CXO 1 25867U 99040B 13363.63269576 -.00000419 00000-0 00000+0 0 9769 2 25867 076.4136 328.6060 8349551 275.9624 000.1764 00.37801133 11277 ____________________________________________________________________ These 2-Line ...Continue Reading

[list_settings.list_name] Current TLEs

December 27th 2013 PDT

HST 1 20580U 90037B 13360.51196914 .00002334 00000-0 15100-3 0 4035 2 20580 028.4709 091.4094 0002739 240.4728 236.0540 15.04415747 98681 ISS (ZARYA) 1 25544U 98067A 13361.13268696 .00009174 00000-0 16809-3 0 3313 2 25544 051.6495 232.3459 0004546 317.8139 122.2407 15.50073083864638 CXO 1 25867U 99040B 13363.63269576 -.00000419 00000-0 00000+0 0 9769 2 25867 076.4136 328.6060 8349551 275.9624 000.1764 00.37801133 11277 ____________________________________________________________________ These 2-Line ...Continue Reading

[list_settings.list_name] Current TLEs

December 26th 2013 PDT

HST 1 20580U 90037B 13358.72753682 .00003043 00000-0 20061-3 0 4025 2 20580 028.4705 103.1212 0002744 221.0309 292.1557 15.04406350 98418 ISS (ZARYA) 1 25544U 98067A 13360.40571759 .00009104 00000-0 16695-3 0 3258 2 25544 051.6500 235.9471 0004538 315.0225 025.6890 15.50058563864510 CXO 1 25867U 99040B 13360.98726191 -.00000480 00000-0 00000+0 0 9752 2 25867 076.4026 328.7567 8351826 275.9642 000.1623 00.37803017 11262 ____________________________________________________________________ These 2-Line ...Continue Reading

[list_settings.list_name] Current TLEs

December 25th 2013 PDT

HST 1 20580U 90037B 13358.72753682 .00003043 00000-0 20061-3 0 4025 2 20580 028.4705 103.1212 0002744 221.0309 292.1557 15.04406350 98418 ISS (ZARYA) 1 25544U 98067A 13359.37357639 .00011619 00000-0 21091-3 0 3150 2 25544 051.6498 241.0620 0004510 310.3924 026.9945 15.50043704864352 CXO 1 25867U 99040B 13358.34377700 -.00000458 00000-0 00000+0 0 9741 2 25867 076.3902 328.9151 8352791 275.9786 000.3563 00.37801401 11255 ____________________________________________________________________ These 2-Line ...Continue Reading

[list_settings.list_name] Current TLEs

December 24th 2013 PDT

HST 1 20580U 90037B 13357.72553249 .00003097 00000-0 20436-3 0 4015 2 20580 028.4703 109.6970 0002809 208.6551 267.1113 15.04402544 98264 ISS (ZARYA) 1 25544U 98067A 13358.17692425 .00013873 00000-0 25034-3 0 3078 2 25544 051.6504 246.9854 0004609 304.3411 191.2117 15.50028361864175 CXO 1 25867U 99040B 13358.34377700 -.00000458 00000-0 00000+0 0 9741 2 25867 076.3902 328.9151 8352791 275.9786 000.3563 00.37801401 11255 ____________________________________________________________________ These 2-Line ...Continue Reading

[list_settings.list_name] Current TLEs

December 23rd 2013 PDT

HST 1 20580U 90037B 13356.52613634 .00002987 00000-0 19676-3 0 4007 2 20580 028.4701 117.5682 0002861 194.1807 253.0292 15.04397001 98073 ISS (ZARYA) 1 25544U 98067A 13357.33347373 .00017168 00000-0 30790-3 0 3014 2 25544 051.6501 251.1637 0004591 300.2126 165.7598 15.50015877864040 CXO 1 25867U 99040B 13358.34377700 -.00000458 00000-0 00000+0 0 9741 2 25867 076.3902 328.9151 8352791 275.9786 000.3563 00.37801401 11255 ____________________________________________________________________ These 2-Line ...Continue Reading

[list_settings.list_name] Current TLEs

December 22nd 2013 PDT

HST 1 20580U 90037B 13354.80793413 .00003045 00000-0 20086-3 0 3990 2 20580 028.4697 128.8451 0002920 174.6192 308.7656 15.04387704 97825 ISS (ZARYA) 1 25544U 98067A 13356.47391204 .00018784 00000-0 33634-3 0 2935 2 25544 051.6502 255.4211 0004540 298.2867 048.1821 15.49992315863904 CXO 1 25867U 99040B 13358.34377700 -.00000458 00000-0 00000+0 0 9741 2 25867 076.3902 328.9151 8352791 275.9786 000.3563 00.37801401 11255 ____________________________________________________________________ These 2-Line ...Continue Reading

[list_settings.list_name] Current TLEs

December 21st 2013 PDT

HST 1 20580U 90037B 13354.80793413 .00003045 00000-0 20086-3 0 3990 2 20580 028.4697 128.8451 0002920 174.6192 308.7656 15.04387704 97825 ISS (ZARYA) 1 25544U 98067A 13355.43996528 .00019199 00000-0 34403-3 0 2857 2 25544 051.6510 260.5424 0004559 293.5197 039.8265 15.49954766863749 CXO 1 25867U 99040B 13358.34377700 -.00000458 00000-0 00000+0 0 9741 2 25867 076.3902 328.9151 8352791 275.9786 000.3563 00.37801401 11255 ____________________________________________________________________ These 2-Line ...Continue Reading

[list_settings.list_name] Current TLEs

December 20th 2013 PDT

HST 1 20580U 90037B 13352.54023385 .00003090 00000-0 20406-3 0 3977 2 20580 028.4694 143.7280 0003099 150.0875 267.7142 15.04374651 97474 ISS (ZARYA) 1 25544U 98067A 13354.28418337 .00019533 00000-0 34260-3 0 2770 2 25544 051.6493 266.2683 0004470 288.4395 071.6625 15.49907953267674 CXO 1 25867U 99040B 13353.05329747 -.00000546 00000-0 00000+0 0 9728 2 25867 076.3624 329.1661 8357133 276.0668 000.0825 00.37796953 11232 ____________________________________________________________________ These 2-Line ...Continue Reading
  • This mailing list is a public mailing list - anyone may join or leave, at any time.
  • This mailing list is announce-only.

International Space Station (ISS) / Hubble Space Telescope (HST) / Chandra X-Ray Observatory Orbital Data via EMAIL

Privacy Policy:

Private list